Stündliche Wetter Holyn'

Heute, 15 Juni, Dienstag

Zeit Temperatur Niederschläge Wind Luftdruck Luftfeuchtigkeit
00:00 +14°C° 0.2 mm 2 m/S 734 mmHg 97%
01:00 +14°C° 0.2 mm 2 m/S 734 mmHg 98%
02:00 +14°C° 0.2 mm 2 m/S 734 mmHg 98%
03:00 +14°C° 0.1 mm 2 m/S 735 mmHg 97%
04:00 +14°C° 0.1 mm 2 m/S 735 mmHg 97%
05:00 +13°C° 0.1 mm 2 m/S 735 mmHg 97%
06:00 +14°C° 0 mm 2 m/S 735 mmHg 96%
07:00 +14°C° 0 mm 2 m/S 735 mmHg 96%
08:00 +15°C° 0 mm 2 m/S 735 mmHg 95%
09:00 +16°C° 0 mm 2 m/S 735 mmHg 90%
10:00 +17°C° 0 mm 2 m/S 735 mmHg 86%
11:00 +19°C° 0 mm 2 m/S 735 mmHg 81%
12:00 +19°C° 0.1 mm 2 m/S 735 mmHg 78%
13:00 +20°C° 0.1 mm 3 m/S 735 mmHg 75%
14:00 +21°C° 0.1 mm 3 m/S 734 mmHg 72%
15:00 +21°C° 0.3 mm 3 m/S 734 mmHg 75%
16:00 +20°C° 0.3 mm 3 m/S 734 mmHg 78%
17:00 +20°C° 0.3 mm 3 m/S 734 mmHg 81%
18:00 +19°C° 0.2 mm 2 m/S 734 mmHg 83%
19:00 +18°C° 0.2 mm 2 m/S 734 mmHg 86%
20:00 +18°C° 0.2 mm 1 m/S 733 mmHg 88%
21:00 +18°C° 0.1 mm 1 m/S 734 mmHg 89%
22:00 +16°C° 0.1 mm 1 m/S 734 mmHg 90%
23:00 +16°C° 0.1 mm 1 m/S 734 mmHg 91%

Morgen, 16 Juni, Mittwoch

Zeit Temperatur Niederschläge Wind Luftdruck Luftfeuchtigkeit
00:00 +15°C° 0 mm 1 m/S 734 mmHg 92%
01:00 +15°C° 0 mm 1 m/S 734 mmHg 92%
02:00 +15°C° 0 mm 1 m/S 734 mmHg 93%
03:00 +14°C° 0 mm 1 m/S 734 mmHg 93%
04:00 +14°C° 0 mm 1 m/S 734 mmHg 93%
05:00 +13°C° 0 mm 1 m/S 734 mmHg 94%
06:00 +14°C° 0 mm 2 m/S 734 mmHg 90%
07:00 +16°C° 0 mm 2 m/S 734 mmHg 87%
08:00 +17°C° 0 mm 2 m/S 735 mmHg 83%
09:00 +18°C° 0 mm 2 m/S 735 mmHg 78%
10:00 +20°C° 0 mm 2 m/S 735 mmHg 74%
11:00 +21°C° 0 mm 2 m/S 735 mmHg 69%
12:00 +22°C° 0.1 mm 3 m/S 735 mmHg 66%
13:00 +24°C° 0.1 mm 3 m/S 734 mmHg 63%
14:00 +24°C° 0.1 mm 3 m/S 734 mmHg 59%
15:00 +24°C° 0.1 mm 3 m/S 734 mmHg 63%
16:00 +24°C° 0.1 mm 3 m/S 734 mmHg 67%
17:00 +22°C° 0.1 mm 3 m/S 734 mmHg 72%
18:00 +21°C° 0.1 mm 2 m/S 734 mmHg 77%
19:00 +20°C° 0.1 mm 2 m/S 735 mmHg 82%
20:00 +18°C° 0.1 mm 2 m/S 735 mmHg 88%
21:00 +17°C° 0 mm 2 m/S 735 mmHg 89%
22:00 +18°C° 0 mm 1 m/S 735 mmHg 91%
23:00 +16°C° 0 mm 1 m/S 735 mmHg 93%

übermorgen, 17 Juni, Donnerstag

Zeit Temperatur Niederschläge Wind Luftdruck Luftfeuchtigkeit
00:00 +15°C° 0 mm 1 m/S 735 mmHg 94%
01:00 +15°C° 0 mm 1 m/S 736 mmHg 94%
02:00 +14°C° 0 mm 0 m/S 736 mmHg 94%
03:00 +14°C° 0 mm 0 m/S 736 mmHg 95%
04:00 +14°C° 0 mm 0 m/S 736 mmHg 95%
05:00 +15°C° 0 mm 1 m/S 736 mmHg 96%
06:00 +16°C° 0 mm 1 m/S 736 mmHg 93%
07:00 +18°C° 0 mm 1 m/S 737 mmHg 91%
08:00 +20°C° 0 mm 1 m/S 737 mmHg 88%
09:00 +21°C° 0 mm 1 m/S 737 mmHg 82%
10:00 +23°C° 0 mm 2 m/S 737 mmHg 76%
11:00 +24°C° 0 mm 2 m/S 738 mmHg 71%
12:00 +25°C° 0.1 mm 3 m/S 737 mmHg 68%
13:00 +25°C° 0.1 mm 3 m/S 737 mmHg 66%
14:00 +26°C° 0.1 mm 3 m/S 737 mmHg 64%
15:00 +26°C° 0.2 mm 3 m/S 737 mmHg 67%
16:00 +25°C° 0.2 mm 3 m/S 737 mmHg 71%
17:00 +25°C° 0.2 mm 3 m/S 737 mmHg 74%
18:00 +24°C° 0.2 mm 2 m/S 737 mmHg 79%
19:00 +21°C° 0.2 mm 2 m/S 737 mmHg 83%
20:00 +21°C° 0.2 mm 1 m/S 737 mmHg 88%
21:00 +20°C° 0 mm 1 m/S 737 mmHg 89%
22:00 +19°C° 0 mm 1 m/S 737 mmHg 90%
23:00 +19°C° 0 mm 1 m/S 738 mmHg 92%

18 Juni, Freitag

Zeit Temperatur Niederschläge Wind Luftdruck Luftfeuchtigkeit
00:00 +18°C° 0 mm 1 m/S 737 mmHg 92%
01:00 +18°C° 0 mm 1 m/S 737 mmHg 93%
02:00 +18°C° 0 mm 1 m/S 737 mmHg 93%
03:00 +18°C° 0 mm 1 m/S 737 mmHg 94%
04:00 +16°C° 0 mm 1 m/S 737 mmHg 95%
05:00 +16°C° 0 mm 1 m/S 737 mmHg 96%
06:00 +18°C° 0 mm 2 m/S 738 mmHg 93%
07:00 +19°C° 0 mm 2 m/S 738 mmHg 91%
08:00 +20°C° 0 mm 2 m/S 738 mmHg 88%
09:00 +22°C° 0 mm 3 m/S 738 mmHg 83%
10:00 +24°C° 0 mm 3 m/S 738 mmHg 77%
11:00 +25°C° 0 mm 4 m/S 738 mmHg 71%
12:00 +26°C° 0.1 mm 4 m/S 738 mmHg 69%
13:00 +26°C° 0.1 mm 4 m/S 737 mmHg 67%
14:00 +27°C° 0.1 mm 4 m/S 737 mmHg 66%
15:00 +26°C° 0.1 mm 4 m/S 737 mmHg 68%
16:00 +26°C° 0.1 mm 4 m/S 737 mmHg 71%
17:00 +26°C° 0.1 mm 4 m/S 737 mmHg 74%
18:00 +23°C° 0.1 mm 4 m/S 737 mmHg 80%
19:00 +22°C° 0.1 mm 3 m/S 737 mmHg 86%
20:00 +20°C° 0.1 mm 3 m/S 737 mmHg 92%
21:00 +19°C° 0 mm 3 m/S 737 mmHg 93%
22:00 +19°C° 0 mm 2 m/S 737 mmHg 95%
23:00 +18°C° 0 mm 2 m/S 737 mmHg 97%

19 Juni, Samstag

Zeit Temperatur Niederschläge Wind Luftdruck Luftfeuchtigkeit
00:00 +17°C° 0 mm 2 m/S 737 mmHg 97%
01:00 +17°C° 0 mm 2 m/S 737 mmHg 98%
02:00 +17°C° 0 mm 2 m/S 737 mmHg 98%
03:00 +17°C° 0 mm 2 m/S 737 mmHg 98%
04:00 +17°C° 0 mm 2 m/S 737 mmHg 98%
05:00 +16°C° 0 mm 2 m/S 737 mmHg 98%
06:00 +18°C° 0 mm 3 m/S 737 mmHg 93%
07:00 +19°C° 0 mm 3 m/S 737 mmHg 88%
08:00 +21°C° 0 mm 4 m/S 737 mmHg 83%
09:00 +22°C° 0 mm 4 m/S 737 mmHg 76%
10:00 +23°C° 0 mm 5 m/S 737 mmHg 70%
11:00 +26°C° 0 mm 5 m/S 737 mmHg 64%
12:00 +26°C° 0 mm 5 m/S 737 mmHg 63%
13:00 +27°C° 0 mm 5 m/S 737 mmHg 62%
14:00 +27°C° 0 mm 5 m/S 737 mmHg 61%
15:00 +27°C° 0 mm 5 m/S 737 mmHg 65%
16:00 +26°C° 0 mm 5 m/S 737 mmHg 69%
17:00 +26°C° 0 mm 4 m/S 737 mmHg 73%
18:00 +23°C° 0.1 mm 4 m/S 737 mmHg 79%
19:00 +22°C° 0.1 mm 4 m/S 737 mmHg 85%
20:00 +21°C° 0.1 mm 3 m/S 737 mmHg 91%
21:00 +20°C° 0 mm 3 m/S 737 mmHg 93%
22:00 +19°C° 0 mm 2 m/S 737 mmHg 95%
23:00 +18°C° 0 mm 2 m/S 737 mmHg 97%

20 Juni, Sonntag

Zeit Temperatur Niederschläge Wind Luftdruck Luftfeuchtigkeit
00:00 +18°C° 0 mm 2 m/S 737 mmHg 96%
01:00 +17°C° 0 mm 2 m/S 737 mmHg 96%
02:00 +17°C° 0 mm 2 m/S 737 mmHg 96%
03:00 +17°C° 0 mm 2 m/S 737 mmHg 95%
04:00 +17°C° 0 mm 2 m/S 737 mmHg 95%
05:00 +17°C° 0 mm 2 m/S 737 mmHg 94%
06:00 +18°C° 0 mm 2 m/S 737 mmHg 89%
07:00 +20°C° 0 mm 2 m/S 737 mmHg 84%
08:00 +22°C° 0 mm 3 m/S 737 mmHg 78%
09:00 +24°C° 0 mm 3 m/S 737 mmHg 74%
10:00 +25°C° 0 mm 3 m/S 737 mmHg 70%
11:00 +27°C° 0 mm 4 m/S 737 mmHg 66%
12:00 +27°C° 0.1 mm 4 m/S 737 mmHg 65%
13:00 +27°C° 0.1 mm 4 m/S 736 mmHg 64%
14:00 +28°C° 0.1 mm 4 m/S 736 mmHg 64%
15:00 +28°C° 0.1 mm 4 m/S 736 mmHg 66%
16:00 +27°C° 0.1 mm 4 m/S 736 mmHg 69%
17:00 +27°C° 0.1 mm 3 m/S 736 mmHg 71%
18:00 +25°C° 0 mm 3 m/S 736 mmHg 77%
19:00 +24°C° 0 mm 3 m/S 736 mmHg 83%
20:00 +21°C° 0 mm 2 m/S 736 mmHg 88%
21:00 +20°C° 0 mm 2 m/S 736 mmHg 90%
22:00 +19°C° 0 mm 2 m/S 736 mmHg 92%
23:00 +18°C° 0 mm 2 m/S 736 mmHg 93%
Mehr zeigen

Wir brauchen deine Erlaubnis

Meteoprog und unser Service Anbieter werden persönliche Daten aufbewahren, so wie Cookies, Geräte Bezeichnung oder ähnliche Technologien von deinem Gerät und Prozess, so wie Persönliche Daten Inhalte und Werbungen, genauso wie social Media und den Verkehr zu analysieren.

  • Aufbewahrung und/oder Zugang zu deiner Geräte Informationen.

    Cookies, Geräte Bezeichnung oder andere Informationen, können aufbewahrt oder Zugang zu deinem Gerät erhalten, für den Grund, der oben angegeben wird.

  • Personalisierte Werbung und Inhalte, Messungen, Einblick in das Publikum und Produkt Entwicklung.

    Werbungen und Inhalte können personalisiert werden, basierend auf ein Profil. Mehr Daten können besser personalisierte Werbungen und Inhalte hinzufügen. Werbung und Inhalte können gezeigt und gemessen werden. Einblicke über das Publikum, welche die Werbung gesehen haben und den Inhalt, können abgeleitet werden. So wie Daten können genutzt werden, um es zu verbessern oder die Benutzer Erfahrung zu verbessern das System und die Software.

Wenn du “Ich stimme zu” klickst, erlaubst du uns, die Cookies zu benutzen die Geräte Bezeichnung, den Web oder ähnliche Technologien zu benutzen. Deine Settings, können in deinem Gerät bei deinem Browser geändert werden.

Für den bestimmten Zweck, berechtigten Interessen beruhen darauf, mehr als auf den Inhalt. Du kannst mehr darüber in unseren Privaten und Cookie Politik lesen.